2405 Weather Reports


time (UTC)temp
C
wind
direction
speed
KPH
gust
KPH
rain 1hr
cm
rain 24hr
cm
rain mn
cm
humidity
%
barometer
mb
20260906123104 18 32 0.0 3.2 0.00 0.00 0.00 63 1017.4
20260906121627 18 0 0.0 3.2 0.00 0.00 0.00 62 1017.4
20260906120103 18 0 0.0 4.8 0.00 0.00 0.00 62 1017.4
20260906114627 18 32 1.6 6.4 0.00 0.00 0.00 62 1017.4
20260906113114 18 0 1.6 6.4 0.00 0.00 0.00 61 1017.4
20260906111606 18 32 1.6 6.4 0.00 0.00 0.00 61 1017.4
20260906104602 18 27 1.6 6.4 0.00 0.03 0.00 61 1017.4
20260906103103 18 0 1.6 6.4 0.00 0.03 0.00 61 1017.4
20260906101604 18 37 1.6 4.8 0.00 0.03 0.00 61 1017.4
20260906100108 18 38 1.6 6.4 0.00 0.03 0.00 61 1017.4
20260906094604 18 35 1.6 6.4 0.00 0.03 0.00 61 1017.4
20260906093108 18 18 1.6 6.4 0.00 0.03 0.00 61 1017.4
20260906091616 18 0 3.2 8.0 0.00 0.03 0.00 60 1017.4
20260906090112 18 32 1.6 6.4 0.00 0.03 0.00 60 1017.4
20260906084604 18 17 1.6 6.4 0.00 0.03 0.00 60 1017.4
20260906083103 19 24 1.6 6.4 0.00 0.03 0.00 60 1017.4
20260906081602 19 0 1.6 4.8 0.00 0.03 0.00 60 1017.4
20260906080111 19 18 1.6 4.8 0.00 0.03 0.00 60 1017.4
20260906074606 19 346 0.0 4.8 0.00 0.03 0.00 60 1017.4
20260906073103 20 0 0.0 4.8 0.00 0.03 0.00 60 1017.4
20260906071614 20 342 1.6 6.4 0.00 0.03 0.00 60 1017.4
20260906070110 20 340 0.0 6.4 0.00 0.03 0.00 60 1017.4
20260906064603 20 5 1.6 6.4 0.00 0.03 0.00 60 1017.4
20260906063102 20 5 1.6 4.8 0.00 0.03 0.00 60 1017.4
20260906061608 20 5 1.6 6.4 0.00 0.03 0.00 60 1017.4
20260906060155 20 5 1.6 4.8 0.00 0.03 0.00 60 1017.4
20260906054616 21 5 1.6 6.4 0.00 0.03 0.00 60 1017.4
20260906053105 21 5 0.0 4.8 0.00 0.03 0.00 60 1017.4
20260906051605 21 5 1.6 4.8 0.00 0.03 0.00 60 1017.4
20260906050116 21 0 0.0 4.8 0.00 0.03 0.00 60 1017.4
20260906044602 21 0 1.6 8.0 0.00 0.03 0.03 60 1017.4
20260906043112 21 47 0.0 8.0 0.00 0.03 0.03 60 1017.4
20260906041602 21 0 1.6 8.0 0.00 0.03 0.03 60 1017.4
20260906040111 21 0 1.6 9.7 0.00 0.03 0.03 59 1017.4
20260906034606 21 0 3.2 12.9 0.00 0.03 0.03 59 1017.4
20260906033107 21 59 4.8 14.5 0.00 0.03 0.03 59 1017.4
20260906031630 21 46 1.6 14.5 0.00 0.03 0.03 59 1017.4
20260906030109 21 57 4.8 16.1 0.00 0.03 0.03 59 1017.4
20260906024608 21 44 4.8 12.9 0.00 0.23 0.03 59 1017.4
20260906023113 21 48 3.2 11.3 0.00 0.23 0.03 59 1017.4
20260906021607 21 20 1.6 8.0 0.00 0.23 0.03 59 1017.4
20260906020109 21 59 0.0 11.3 0.00 0.23 0.03 59 1017.4
20260906014606 21 44 1.6 11.3 0.00 0.23 0.03 59 1017.4
20260906013102 21 45 4.8 14.5 0.00 0.23 0.03 59 1017.4
20260906011612 21 0 4.8 14.5 0.00 0.23 0.03 59 1017.4
20260906010114 22 19 9.7 20.9 0.00 0.23 0.03 60 1017.4
20260906004603 22 71 6.4 20.9 0.00 0.23 0.03 60 1017.4
20260906003105 22 360 8.0 17.7 0.00 0.23 0.03 60 1017.4
20260906001615 22 67 8.0 17.7 0.00 0.23 0.03 60 1017.4
20260906000110 22 41 6.4 22.5 0.00 0.23 0.03 60 1017.4
20260905234607 22 66 8.0 22.5 0.00 0.23 0.03 60 1017.4
20260905233107 22 32 8.0 22.5 0.00 0.23 0.03 60 1017.4
20260905231619 23 9 9.7 24.1 0.00 0.23 0.03 60 1017.4
20260905230113 23 37 9.7 24.1 0.00 0.23 0.03 59 1017.4
20260905224604 25 46 6.4 24.1 0.00 0.23 0.03 58 1017.4
20260905223105 25 62 9.7 20.9 0.00 0.23 0.03 58 1017.4
20260905221631 26 45 8.0 24.1 0.00 0.23 0.03 55 1017.4
20260905220106 26 64 6.4 17.7 0.00 0.23 0.03 54 1017.4
20260905214609 26 65 8.0 25.7 0.00 0.23 0.03 55 1017.4
20260905213107 26 66 6.4 17.7 0.00 0.23 0.03 56 1017.4
20260905211605 26 68 4.8 22.5 0.00 0.23 0.03 56 1017.4
20260905210116 27 5 3.2 14.5 0.00 0.23 0.03 53 1017.4
20260905204607 27 11 11.3 19.3 0.00 0.23 0.03 51 1017.4
20260905203102 27 23 8.0 20.9 0.00 0.23 0.03 53 1017.4
20260905201610 27 15 4.8 24.1 0.00 0.23 0.03 54 1017.4
20260905200130 27 23 4.8 12.9 0.00 0.23 0.03 54 1017.4
20260905194606 26 78 6.4 16.1 0.00 0.23 0.03 54 1017.4
20260905193101 26 26 4.8 14.5 0.00 0.23 0.03 53 1017.4
20260905191607 25 59 1.6 8.0 0.00 0.23 0.03 55 1017.4
20260905190106 25 34 4.8 19.3 0.00 0.23 0.03 55 1017.4
20260905184609 25 78 3.2 16.1 0.00 0.23 0.03 55 1017.4
20260905183103 25 51 1.6 11.3 0.00 0.23 0.03 55 1017.4
20260905181609 25 59 3.2 14.5 0.00 0.23 0.03 55 1017.4
20260905180116 24 25 4.8 9.7 0.00 0.23 0.03 55 1017.4
20260905174603 24 39 4.8 19.3 0.00 0.23 0.03 55 1017.4
20260905173132 24 15 8.0 19.3 0.00 0.23 0.03 55 1017.4
20260905171606 24 61 6.4 17.7 0.00 0.23 0.03 55 1017.4
20260905170106 24 31 6.4 17.7 0.00 0.23 0.03 55 1017.4
20260905164615 24 86 4.8 17.7 0.00 0.23 0.03 56 1017.4
20260905163105 24 15 6.4 14.5 0.00 0.23 0.03 56 1017.4
20260905161608 23 34 4.8 17.7 0.00 0.23 0.03 57 1017.4
20260905160107 23 51 4.8 17.7 0.00 0.23 0.03 58 1017.4
20260905154606 23 15 4.8 16.1 0.00 0.23 0.03 59 1017.4
20260905153104 23 38 3.2 17.7 0.00 0.23 0.03 62 1017.4
20260905151609 23 32 6.4 19.3 0.00 0.23 0.03 65 1017.4
20260905150108 23 36 6.4 19.3 0.00 0.23 0.03 66 1017.4
20260905144605 23 0 6.4 16.1 0.00 0.23 0.03 67 1017.4
20260905143112 23 47 1.6 11.3 0.00 0.23 0.03 67 1017.4
20260905141609 22 51 3.2 12.9 0.00 0.23 0.03 67 1017.4
20260905140112 22 351 6.4 14.5 0.00 0.23 0.03 67 1017.4
20260905134609 22 0 1.6 14.5 0.00 0.23 0.03 67 1017.4
20260905133108 22 16 3.2 12.9 0.00 0.23 0.03 67 1017.4
20260905131608 22 30 1.6 12.9 0.00 0.23 0.03 66 1017.4
20260905130105 22 10 3.2 8.0 0.00 0.23 0.03 66 1017.4